WetterOnline ( https://www.wetteronline.de )

Wetter aktuell Schönberg

Aktuelles Wetter: Lübeck/Blankensee (15m)

6-stündlich | Neueste Meldungen
Ortszeit Temperatur Wetter
Mo, 18.11. 7:00 7.3° C bedeckt
Mo, 18.11. 1:00 7.7° C bedeckt
So, 17.11. 19:00 6.5° C Regen
So, 17.11. 13:00 4.5° C bedeckt
So, 17.11. 7:00 1.2° C wolkenlos
So, 17.11. 1:00 3.2° C wolkenlos
Sa, 16.11. 19:00 5.2° C Sprühregen
Sa, 16.11. 13:00 6.5° C Sprühregen
Ortszeit Temperatur Wetter
Mo, 18.11. 10:30 8.1° C bewölkt
Mo, 18.11. 10:20 8.1° C bewölkt
Mo, 18.11. 10:10 8.1° C bedeckt
Mo, 18.11. 10:00 8.1° C bedeckt
Mo, 18.11. 9:50 8.1° C bedeckt
Mo, 18.11. 9:40 7.9° C bedeckt
Mo, 18.11. 9:30 7.7° C bedeckt
Mo, 18.11. 9:00 7.5° C bedeckt
Mo, 18.11. 8:30 7.4° C bedeckt
Mo, 18.11. 8:00 7.3° C bedeckt
Mo, 18.11. 7:30 7.3° C bedeckt
Ortszeit Relative Feuchte Sichtweite
Mo, 18.11. 7:00 98% 4.2 km
Mo, 18.11. 1:00 90% 24 km
So, 17.11. 19:00 85% 40 km
So, 17.11. 13:00 86% 18 km
So, 17.11. 7:00 94% 10 km
So, 17.11. 1:00 89% 17 km
Sa, 16.11. 19:00 92% 10 km
Sa, 16.11. 13:00 93% 16 km
Ortszeit Relative Feuchte Sichtweite
Mo, 18.11. 10:30 95% 6 km
Mo, 18.11. 10:20 95% -
Mo, 18.11. 10:10 95% -
Mo, 18.11. 10:00 95% 6 km
Mo, 18.11. 9:50 95% -
Mo, 18.11. 9:40 95% -
Mo, 18.11. 9:30 96% 5.0 km
Mo, 18.11. 9:00 97% 4.9 km
Mo, 18.11. 8:30 97% 4.7 km
Mo, 18.11. 8:00 97% 4.4 km
Mo, 18.11. 7:30 98% 4.3 km
Ortszeit Niederschlagsmenge Niederschlagsart
Mo, 18.11. 7:00 0.1 l/m2 in 12 Std. -
Mo, 18.11. 1:00 0.1 l/m2 in 6 Std. Regen
So, 17.11. 19:00 0.1 l/m2 in 12 Std. Sprühregen
So, 17.11. 13:00 0.0 l/m2 in 6 Std. -
So, 17.11. 7:00 0.1 l/m2 in 12 Std. -
So, 17.11. 1:00 0.1 l/m2 in 6 Std. Sprühregen, Niederschlag
Sa, 16.11. 19:00 13 l/m2 in 12 Std. Regen
Sa, 16.11. 13:00 11 l/m2 in 6 Std. Regen
Ortszeit Niederschlagsmenge Niederschlagsart
Mo, 18.11. 10:30 0.0 l/m2 in 1 Std. -
Mo, 18.11. 10:20 keine Meldung -
Mo, 18.11. 10:10 keine Meldung -
Mo, 18.11. 10:00 0.0 l/m2 in 1 Std. -
Mo, 18.11. 9:50 keine Meldung -
Mo, 18.11. 9:40 keine Meldung -
Mo, 18.11. 9:30 0.0 l/m2 in 1 Std. -
Mo, 18.11. 9:00 0.0 l/m2 in 1 Std. -
Mo, 18.11. 8:30 0.0 l/m2 in 1 Std. -
Mo, 18.11. 8:00 0.0 l/m2 in 1 Std. -
Mo, 18.11. 7:30 0.0 l/m2 in 1 Std. -
Ortszeit Stärke Spitze Richtung
km/h Bft. km/h Grad Sektor
Mo, 18.11. 7:00 9 2 22 100° O
Mo, 18.11. 1:00 11 2 36 50° NO
So, 17.11. 19:00 18 3 29 40° NO
So, 17.11. 13:00 6 1 19 50° NO
So, 17.11. 7:00 11 2 22 160° S
So, 17.11. 1:00 7 2 36 180° S
Sa, 16.11. 19:00 11 2 40 210° SW
Sa, 16.11. 13:00 13 3 26 230° SW
Ortszeit Stärke Spitze Richtung
km/h Bft. km/h Grad Sektor
Mo, 18.11. 10:30 4 1 7 230° SW
Mo, 18.11. 10:20 4 1 - 230° SW
Mo, 18.11. 10:10 4 1 - 210° SW
Mo, 18.11. 10:00 0 0 7 - -
Mo, 18.11. 9:50 0 0 - 260° W
Mo, 18.11. 9:40 4 1 - 110° O
Mo, 18.11. 9:30 0 0 7 - -
Mo, 18.11. 9:00 4 1 14 70° O
Mo, 18.11. 8:30 9 2 13 80° O
Mo, 18.11. 8:00 7 2 14 100° O
Mo, 18.11. 7:30 11 2 14 90° O
Ortszeit Untergrenze Bedeckung Gattung
total tief tief mittel hoch
Mo, 18.11. 7:00 120 m 8/8 8/8 - - -
Mo, 18.11. 1:00 270 m 8/8 8/8 - - -
So, 17.11. 19:00 900 m 8/8 8/8 - - -
So, 17.11. 13:00 3300 m 8/8 8/8 - - -
So, 17.11. 7:00 9000 m 0/8 0/8 - - -
So, 17.11. 1:00 - 0/8 0/8 - - -
Sa, 16.11. 19:00 420 m 8/8 8/8 - - -
Sa, 16.11. 13:00 240 m 7/8 7/8 - - -
Ortszeit Bedeckungsgrad in Achtel und Wolkenuntergrenze
Mo, 18.11. 10:30 7(180m)
Mo, 18.11. 10:20 7(180m)
Mo, 18.11. 10:10 7(180m) 8(330m) 8(1470m)
Mo, 18.11. 10:00 6(180m) 8(330m) 8(1470m)
Mo, 18.11. 9:50 6(180m) 8(330m) 8(1470m)
Mo, 18.11. 9:40 7(180m) 8(330m) 8(1500m)
Mo, 18.11. 9:30 8(150m)
Mo, 18.11. 9:00 7(150m) 8(1440m)
Mo, 18.11. 8:30 7(120m) 7(960m) 8(1440m)
Mo, 18.11. 8:00 8(120m) 8(990m)
Mo, 18.11. 7:30 8(120m) 8(1080m)
Ortszeit Luftdruck NN (hPa) Tendenz (hPa in 3 Std.)
Mo, 18.11. 7:00 1004 - 0,6
Mo, 18.11. 1:00 1007 - 2,2
So, 17.11. 19:00 1011 - 1,6
So, 17.11. 13:00 1015 - 0,8
So, 17.11. 7:00 1015 + 1,1
So, 17.11. 1:00 1012 + 1,2
Sa, 16.11. 19:00 1008 + 2,6
Sa, 16.11. 13:00 1003 + 0,6
Ortszeit Luftdruck NN (hPa) Tendenz (hPa in 3 Std.)
Mo, 18.11. 10:30 1005 + 0,6
Mo, 18.11. 10:20 1005 keine Meldung
Mo, 18.11. 10:10 1005 keine Meldung
Mo, 18.11. 10:00 1004 + 0,5
Mo, 18.11. 9:50 1004 keine Meldung
Mo, 18.11. 9:40 1004 keine Meldung
Mo, 18.11. 9:30 1004 + 0,4
Mo, 18.11. 9:00 1004 + 0,3
Mo, 18.11. 8:30 1004 - 0,1
Mo, 18.11. 8:00 1004 - 0,2
Mo, 18.11. 7:30 1004 - 0,5
Ortszeit Schneehöhe (cm)
Mo, 18.11. 7:00 0
Mo, 18.11. 1:00 0
So, 17.11. 19:00 0
So, 17.11. 13:00 0
So, 17.11. 7:00 0
So, 17.11. 1:00 0
Sa, 16.11. 19:00 0
Sa, 16.11. 13:00 0
Ortszeit Schneehöhe (cm)
Mo, 18.11. 10:30 0
Mo, 18.11. 10:20 0
Mo, 18.11. 10:10 0
Mo, 18.11. 10:00 0
Mo, 18.11. 9:50 0
Mo, 18.11. 9:40 0
Mo, 18.11. 9:30 0
Mo, 18.11. 9:00 0
Mo, 18.11. 8:30 0
Mo, 18.11. 8:00 0
Mo, 18.11. 7:30 0
Link zu dieser Seite / Seite empfehlen

Das Wetter in ...